Regional Weather Roundup
Issued by NWS

Home | Current Version | Previous Version | Text Only | Print | Product List | Glossary On
Versions: 1 2 3 4 5 6 7 8 9 10 11 12 13 14 15 16 17 18 19 20 21 22 23 24 25 26 27 28 29 30 31 32 33 34 35 36 37 38 39 40 41 42 43 44 45 46 47 48 49 50
000
ASUS43 KDTX 280010
RWRMI
MICHIGAN HOURLY REGIONAL WEATHER ROUNDUP
NATIONAL WEATHER SERVICE DETROIT/PONTIAC MI
800 PM EDT SUN MAY 27 2018

NOTE: "FAIR" INDICATES FEW OR NO CLOUDS BELOW 12,000 FEET WITH NO
SIGNIFICANT WEATHER AND/OR OBSTRUCTION TO VISIBILITY.

MIZ047>049-052>055-059>063-066>070-074>076-081>083-280100-
SOUTHEAST LOWER MICHIGAN

CITY           SKY/WX    TMP DP  RH WIND       PRES   REMARKS
ADRIAN         FAIR      88  63  43 CALM      29.90R
6HR MIN TEMP:  86; 6HR MAX TEMP:  91;

ALMA           PTSUNNY   79  75  86 CALM      29.87S
6HR MIN TEMP:  76; 6HR MAX TEMP:  92;

ANN ARBOR      FAIR      83  65  54 S5        29.88R
BAD AXE        FAIR      80  66  62 SW5       29.85R
6HR MIN TEMP:  73; 6HR MAX TEMP:  88;

CARO           FAIR      81  68  64 SW6       29.85S
DETROIT CITY   FAIR      85  65  51 SW9       29.86S
6HR MIN TEMP:  85; 6HR MAX TEMP:  89;

DETROIT        FAIR      84  67  56 S12       29.88R
6HR MIN TEMP:  84; 6HR MAX TEMP:  91;

FLINT          FAIR      82  63  52 NW9G23    29.88R
6HR MIN TEMP:  82; 6HR MAX TEMP:  90;

GROSSE ILE     FAIR      71  67  89 S5        29.88S
6HR MIN TEMP:  71; 6HR MAX TEMP:  80;

HILLSDALE      FAIR      86  64  48 CALM      29.91R
HOWELL         FAIR      85  63  48 SW3       29.88S
6HR MIN TEMP:  84; 6HR MAX TEMP:  90;


CITY           SKY/WX    TMP DP  RH WIND       PRES   REMARKS
JACKSON        FAIR      87  62  43 W3        29.89R
6HR MIN TEMP:  87; 6HR MAX TEMP:  93;

LAMBERTVILLE   FAIR      87  65  47 CALM      29.88F
6HR MIN TEMP:  87; 6HR MAX TEMP:  92;

LANSING        FAIR      86  59  39 W5        29.88R
6HR MIN TEMP:  86; 6HR MAX TEMP:  92;

LAPEER         FAIR      85  64  49 CALM      29.87R
6HR MIN TEMP:  84; 6HR MAX TEMP:  91;

MASON          FAIR      87  57  36 CALM      29.89S
6HR MIN TEMP:  87; 6HR MAX TEMP:  92;

MONROE         FAIR      80  69  70 SE3       29.88S
MT. CLEMENS    PTCLDY    77  71  83 S9        29.86S
6HR MIN TEMP:  77; 6HR MAX TEMP:  85;

PONTIAC        MOCLDY    87  63  44 SW6       29.86S
6HR MIN TEMP:  86; 6HR MAX TEMP:  90;

PORT HOPE        N/A     64  59  83 SE6       29.82R
6HR MIN TEMP:  62; 6HR MAX TEMP:  90;

PORT HURON     FAIR      82  66  57 S3        29.86R
TRI CITIES     FAIR      80  68  66 SW10      29.86S
6HR MIN TEMP:  80; 6HR MAX TEMP:  92; 6HR PCP: TRACE;

MIDLAND        FAIR      85  66  52 SW3       29.84S
6HR MIN TEMP:  76; 6HR MAX TEMP:  91;

TROY           FAIR      90  57  33 SW5       29.88R
SAGINAW HB     FAIR      81  63  54 SW9       29.84F
$$
MIZ043>046-050>051-056>058-064>065-071>073-077>080-280100-
SOUTHWEST LOWER MICHIGAN

CITY           SKY/WX    TMP DP  RH WIND       PRES   REMARKS
BATTLE CREEK   FAIR      88  58  36 NW7       29.90R
6HR MIN TEMP:  87; 6HR MAX TEMP:  92;

BENTON HARBOR  FAIR      87  62  43 CALM      29.88R
6HR MIN TEMP:  86; 6HR MAX TEMP:  91;

BIG RAPIDS     FAIR      81  63  54 CALM      29.87F
6HR MIN TEMP:  81; 6HR MAX TEMP:  91;

COLDWATER      FAIR      88  55  33 N3        29.90R
6HR MIN TEMP:  87; 6HR MAX TEMP:  93;

FREMONT        FAIR      85  62  44 W5        29.87S
6HR MIN TEMP:  85; 6HR MAX TEMP:  92;

HOLLAND        FAIR      85  62  46 W3        29.88S
6HR MIN TEMP:  85; 6HR MAX TEMP:  90;

GRAND RAPIDS   PTSUNNY   88  61  40 W8        29.88S
6HR MIN TEMP:  88; 6HR MAX TEMP:  93;

IONIA          FAIR      89  58  35 W9        29.87S
6HR MIN TEMP:  89; 6HR MAX TEMP:  93;

KALAMAZOO      FAIR      89  52  28 W5        29.89R
6HR MIN TEMP:  89; 6HR MAX TEMP:  93;

LUDINGTON      FAIR      77  65  65 CALM      29.86S
6HR MIN TEMP:  72; 6HR MAX TEMP:  78;

MARSHALL       FAIR      85  57  38 CALM      29.89S
6HR MIN TEMP:  85; 6HR MAX TEMP:  92;

MOUNT PLEASANT FAIR      87  56  34 CALM      29.85F
6HR MIN TEMP:  75; 6HR MAX TEMP:  93; 6HR PCP:  0.07;

MUSKEGON       PTSUNNY   81  63  54 SW5       29.87F
6HR MIN TEMP:  81; 6HR MAX TEMP:  87;

SOUTH HAVEN    FAIR      85  62  46 CALM      29.89S
$$
MIZ016>042-280100-
NORTHERN LOWER MICHIGAN

CITY           SKY/WX    TMP DP  RH WIND       PRES   REMARKS
ALPENA         FAIR      80  63  55 N13       29.84S
6HR MIN TEMP:  80; 6HR MAX TEMP:  89;

BEAVER ISLAND  FAIR      73  58  60 W5        29.87R
6HR MIN TEMP:  73; 6HR MAX TEMP:  82;

BELLAIRE       FAIR      80  58  47 CALM      29.86S
6HR MIN TEMP:  78; 6HR MAX TEMP:  83;

CADILLAC       FAIR      81  58  45 NW5       29.90S
CHARLEVOIX     FAIR      69  56  62 NW7       29.89S
6HR MIN TEMP:  63; 6HR MAX TEMP:  78;

FRANKFORT      FAIR      77  62  59 NW3       29.85F
GAYLORD        FAIR      79  58  48 W7        29.89F
6HR MIN TEMP:  79; 6HR MAX TEMP:  86;

GRAYLING       FAIR      80  56  43 NW7       29.87F
6HR MIN TEMP:  80; 6HR MAX TEMP:  91;

HARBOR SPRINGS FAIR      69  59  70 CALM      29.86S
HOUGHTON LAKE  FAIR      82  54  37 NW5       29.88F
6HR MIN TEMP:  82; 6HR MAX TEMP:  91;

MANISTEE       FAIR      71  61  70 W7        29.86S
OSCODA         FAIR      80  64  57 SW3       29.82S
6HR MIN TEMP:  71; 6HR MAX TEMP:  88; 6HR PCP:  0.06;

PELLSTON       FAIR      82  60  47 NW6       29.86F
6HR MIN TEMP:  80; 6HR MAX TEMP:  86;

ROGERS CITY    FAIR      71  60  69 CALM      29.87F
TRAVERSE CITY  FAIR      80  60  50 E3        29.85F
6HR MIN TEMP:  68; 6HR MAX TEMP:  80;

$$
MIZ007>008-015-280100-
EASTERN UPPER MICHIGAN

CITY           SKY/WX    TMP DP  RH WIND       PRES   REMARKS
KINROSS        FAIR      72  60  66 N8        29.88R
6HR MIN TEMP:  72; 6HR MAX TEMP:  80;

MACKINAC ISLAN FAIR      69  57  65 W3        29.87R
6HR MIN TEMP:  67; 6HR MAX TEMP:  74;

NEWBERRY       FAIR      77  58  53 N3        29.87R
6HR MIN TEMP:  77; 6HR MAX TEMP:  82;

S. S. MARIE    FAIR      71  59  65 W8        29.86R
6HR MIN TEMP:  71; 6HR MAX TEMP:  79;

MUNISING         N/A     56  53  90 CALM      29.87R
6HR MIN TEMP:  52; 6HR MAX TEMP:  57;

$$
MIZ004>006-011>014-085-280100-
CENTRAL UPPER MICHIGAN

CITY           SKY/WX    TMP DP  RH WIND       PRES   REMARKS
MANISTIQUE     FAIR      63  61  94 S5        29.86S
6HR MIN TEMP:  63; 6HR MAX TEMP:  77;

ESCANABA       FAIR      73  59  61 SE5       29.85R
6HR MIN TEMP:  72; 6HR MAX TEMP:  81;

MENOMINEE      FAIR      76  59  55 SE8       29.85
6HR MIN TEMP:  76; 6HR MAX TEMP:  84;

$$
MIZ001>003-009>011-084-280100-
WESTERN UPPER MICHIGAN

CITY           SKY/WX    TMP DP  RH WIND       PRES   REMARKS
IRON MOUNTAIN  FAIR      88  54  31 NE3       29.84R
6HR MIN TEMP:  85; 6HR MAX TEMP:  91;

HOUGHTON       FAIR      67  55  65 MISG      29.86R
6HR MIN TEMP:  66; 6HR MAX TEMP:  83;

COPPER HARBOR    N/A     62  53  72 CALM      29.83F
6HR MIN TEMP:  45; 6HR MAX TEMP:  62;

IRONWOOD       FAIR      83  58  42 NE6       29.86F
6HR MIN TEMP:  80; 6HR MAX TEMP:  87;

$$

ABBREVIATIONS USED IN REMARKS
   TC - TEMPERATURE IN CELSIUS
  WCI - WIND CHILL INDEX
   HX - HEAT INDEX
  VSB - VISIBILITY





USA.gov is the U.S. government's official web portal to all federal, state and local government web resources and services.